This demonstration page uses our WeatherBlox Daily Observations layout. Learn more.

Left ArrowRight Arrow

39.01783, -85.05884

Hourly Observations for May 22, 2015

Temp ( °F °C ) Dew Point ( °F °C ) Humidity (%) Winds ( mph kmh ) Pressure ( in mb ) Visibility ( mi km ) Precip ( " mm )
12:52 am 00:52 Clear 47 8.3 41 5 80 80 SW 5 7 30.13 1020 10 16 0.00 0.00
1:52 am 01:52 Clear 47 8.3 41 5 80 80 WSW 5 7 30.13 1020 10 16 0.00 0.00
2:52 am 02:52 Clear 47 8.3 41 5 80 80 WSW 5 7 30.13 1020 10 16 0.00 0.00
3:52 am 03:52 Clear 44 6.7 41 5 89 89 SSW 5 7 30.13 1020 10 16 0.00 0.00
4:52 am 04:52 Clear 44 6.7 41 5 89 89 SSW 6 9 30.14 1021 9 14 0.00 0.00
5:52 am 05:52 Clear 45 7.2 42 5.6 90 90 SW 6 9 30.16 1022 7 11 0.00 0.00
6:52 am 06:52 Sunny with Mist and Fog 43 6.1 41 5 93 93 SSW 3 6 30.18 1022 5 8 0.00 0.00
7:52 am 07:52 Sunny 48 8.9 44 6.7 86 86 SW 6 9 30.20 1023 9 14 0.00 0.00
8:52 am 08:52 Sunny 55 12.8 45 7.2 69 69 WSW 7 11 30.20 1023 10 16 0.00 0.00
9:52 am 09:52 Sunny 59 15 46 7.8 62 62 W 8 13 30.22 1023 10 16 0.00 0.00
11:52 am 11:52 Sunny 68 20 49 9.4 51 51 W 10 17 30.22 1023 10 16 0.00 0.00
12:52 pm 12:52 Mostly Sunny 69 20.6 48 8.9 47 47 W 12 19 30.21 1023 10 16 0.00 0.00
1:52 pm 13:52 Partly Cloudy 71 21.7 47 8.3 42 42 SW 12 19 30.20 1023 10 16 0.00 0.00
2:52 pm 14:52 Partly Cloudy 71 21.7 48 8.9 44 44 SW 9 15 30.20 1023 10 16 0.00 0.00
3:52 pm 15:52 Partly Cloudy 72 22.2 48 8.9 43 43 WSW 8 13 30.20 1023 10 16 0.00 0.00
4:52 pm 16:52 Mostly Cloudy 74 23.3 47 8.3 38 38 WSW 14 22 30.19 1023 10 16 0.00 0.00
5:52 pm 17:52 Mostly Cloudy 73 22.8 45 7.2 37 37 WSW 12 19 30.20 1023 10 16 0.00 0.00
6:52 pm 18:52 Mostly Cloudy 71 21.7 46 7.8 41 41 WSW 9 15 30.21 1023 10 16 0.00 0.00
7:52 pm 19:52 Cloudy 70 21.1 46 7.8 42 42 WSW 6 9 30.21 1023 10 16 0.00 0.00
8:52 pm 20:52 Mostly Cloudy 68 20 45 7.2 44 44 WSW 5 7 30.22 1024 10 16 0.00 0.00
9:52 pm 21:52 Mostly Cloudy 64 17.8 46 7.8 52 52 Calm 30.23 1024 10 16 0.00 0.00
10:52 pm 22:52 Mostly Clear 59 15 47 8.3 64 64 Calm 30.26 1025 10 16 0.00 0.00
11:52 pm 23:52 Clear 58 14.4 47 8.3 67 67 Calm 30.27 1025 10 16 0.00 0.00

Powered by AerisWeather